Regional Weather Roundup
Issued by NWS Upton, NY

Current Version | Previous Version | Graphics & Text | Print | Product List | Glossary Off
Versions: 1 2 3 4 5 6 7 8 9 10 11 12 13 14 15 16 17 18 19 20 21 22 23 24 25 26 27 28 29 30 31 32 33 34 35 36 37 38 39 40 41 42 43 44 45 46 47 48 49 50

000
ASUS41 KOKX 011005
RWROKX

REGIONAL WEATHER ROUNDUP
NATIONAL WEATHER SERVICE NEW YORK NY
600 AM EDT WED OCT 01 2014

NOTE: "FAIR" INDICATES FEW OR NO CLOUDS BELOW 12,000 FEET WITH NO
SIGNIFICANT WEATHER AND/OR OBSTRUCTIONS TO VISIBILITY.

NYZ071-072-176-178-NJZ106-104-011100-
NEW YORK CITY METRO AREA


CITY           SKY/WX    TMP DP  RH WIND       PRES   REMARKS
CENTRAL PARK   CLOUDY    63  56  78 VRB6      30.02S
LAGUARDIA APRT CLOUDY    62  57  83 N8        29.99R
KENNEDY INTL   CLOUDY    63  57  82 N10       30.00R
NEWARK/LIBERTY CLOUDY    62  57  83 N10       30.00R
BRNX BOT. GARD   N/A     59  55  88 N2        30.02R
TETERBORO      CLOUDY    62  55  77 N6        29.99R
$$

NYZ177-179-078>081-011100-
LONG ISLAND NEW YORK

CITY           SKY/WX    TMP DP  RH WIND       PRES   REMARKS
FARMINGDALE    CLOUDY    61  59  93 NE5       29.99R
ISLIP          DRIZZLE   60  58  92 NE9       29.97R FOG
SHIRLEY        LGT RAIN  60  58  92 N6        29.99R
WESTHAMPTON    LGT RAIN  59  57  93 N12       30.00R FOG
MONTAUK POINT    N/A     60  58  92 NE10G17   29.99S
$$

NYZ052-065-067-011100-
HUDSON VALLEY

CITY           SKY/WX    TMP DP  RH WIND       PRES   REMARKS
WHITE PLAINS   LGT RAIN  59  56  89 N5        30.00R
NEWBURGH       CLOUDY    59  57  94 NE6       30.02S
MONTGOMERY     CLOUDY    58  56  93 CALM      30.01S
POUGHKEEPSIE   CLOUDY    60  55  83 CALM      30.01S
ALBANY         LGT RAIN  60  56  86 N3        30.03S
$$

NJZ001-105-106-008-010-013-015-019>022-104-011100-
NEW JERSEY

CITY           SKY/WX    TMP DP  RH WIND       PRES   REMARKS
NEWARK/LIBERTY CLOUDY    62  57  83 N10       30.00R
TETERBORO      CLOUDY    62  55  77 N6        29.99R
CALDWELL       CLOUDY    60  54  80 CALM      30.01R
MORRISTOWN     CLOUDY    61  55  82 CALM      30.01R
SOMERVILLE     MOCLDY    58  56  93 CALM      29.98S
LINDEN         CLOUDY    66  59  78 NE7       30.01S
SUSSEX         CLOUDY    61  55  81 NE3       30.02R
ANDOVER          N/A     57  56  96 NE3       30.02R
TRENTON        CLOUDY    61  57  87 N7        29.98S
MILLVILLE      CLOUDY    62  59  90 NE9       29.96S
ATLANTIC CITY  CLOUDY    62  61  96 N10       29.96R FOG
WRIGHTSTOWN    CLOUDY    61  61 100 N2        29.96R
TOMS RIVER     CLOUDY    61  59  94 NE3       29.98S
BELMAR         CLOUDY    61  55  82 N8        29.98S
$$

PAZ047>061-062-071-011100-
EASTERN PENNSYLVANIA

CITY           SKY/WX    TMP DP  RH WIND       PRES   REMARKS
PHILADELPHIA   CLOUDY    64  58  80 NE8       29.98R
ALLENTOWN      CLOUDY    59  56  89 NE6       30.00R FOG
SCRANTON       MOCLDY    60  56  86 NE3       30.00R
$$

CTZ002-004>006-009-010-012-RIZ004-006-007-MAZ004-011-015-011100-
SOUTHERN NEW ENGLAND
 IN CT

CITY           SKY/WX    TMP DP  RH WIND       PRES   REMARKS
BRADLEY INTL   LGT RAIN  59  56  89 N7        30.02R
HARTFORD       LGT RAIN  58  56  93 VRB7      30.01S
DANBURY        LGT RAIN  58  56  93 NE5       30.02S FOG
WTRBRY/OXFORD  RAIN      57  52  82 NE8       30.03R FOG
BRIDGEPORT     LGT RAIN  59  58  96 N10       29.99S
MERIDEN        LGT RAIN  58  56  93 N6        30.01R
NEW HAVEN      LGT RAIN  61  57  87 N13       29.99S
CHESTER        LGT RAIN  57  55  94 NE5       30.01R
GROTON         CLOUDY    57  56  96 N8        29.98R
WILLIMANTIC    LGT RAIN  58  55  90 N9        30.01S

 IN RI

CITY           SKY/WX    TMP DP  RH WIND       PRES   REMARKS
PROVIDENCE     CLOUDY    58  56  93 N9        30.01R
BLOCK ISLAND   CLOUDY    59  55  88 NE15G22   29.97S
WESTERLY       CLOUDY    58  56  93 N7        29.99S

 IN MA

CITY           SKY/WX    TMP DP  RH WIND       PRES   REMARKS
BOSTON         CLOUDY    57  55  93 N15       30.03R
WORCESTER      CLOUDY    54  53  97 NE14G23   30.03F FOG
WESTFIELD      LGT RAIN  59  56  89 N7        30.03S
PROVINCETOWN   CLOUDY    61  57  88 NE10G16   30.00R
NANTUCKET      CLOUDY    63  61  93 N17       29.94S
$$

ANZ330-335-338-340-345-350-353-355-011100-
COASTAL MARINE OBSERVATIONS


STATION/POSITION TIME  SKY/WX   TEMP    WIND        PRES    VSBY  WAVE
                                AIR SEA DIR/SP/G                  HT/PER
                 (UTC)          (F)     (DEG/KT/KT) (MB)    (MI)  (FT/S)
NY HARB ENTRANCE NOT AVBL
4S FIRE IS       1000               68                N/A           3/ 5
20S FIRE ISLAND  1000            62 67   30/ 14/ 17 1014.6          4/ 6
23SW MTP         1000                                 N/A           5/ 6
HUDSON CANYON    1000            66 69   30/ 17/ 19 1012.8          5/ 6
EXECUTION ROCKS  1000            62 68   20/ 12/ 14   N/A
WESTERN LI SOUND 1000            62      10/ 10/ 12   N/A           1/ 4
CENTRAL LI SOUND 0900            59 68   40/ 12/ 16   N/A           1/ 3
EASTERN LI SOUND 0900            60 67   30/ 12/ 16   N/A
ROBBINS REEF     1000            62     360/ 12/ 14 1014.3
$$


>>>>>>>>>>>>>>>>>>>>>>>>>>>> KEY <<<<<<<<<<<<<<<<<<<<<<<<<<<
>                                                          <
>     SKY/WX - SKY CONDITION/PRESENT WEATHER               <
>     TMP    - TEMPERATURE IN FAHRENHEIT                   <
>     DP     - DEWPOINT IN FAHRENHEIT                      <
>     RH     - RELATIVE HUMIDITY IN PERCENT                <
>     WIND   - DIRECTION AND SPEED IN MPH                  <
>     PRES   - MEAN SEA LEVEL PRESSURE IN INCHES OF HG     <
>     WCI    - WIND CHILL INDEX                            <
>     VSB    - VISIBILITY IN MILES                         <
>     HX     - HEAT INDEX                                  <
>     TC     - TEMPERATURE IN CELSIUS                      <
>     VRB    - VARIABLE WIND DIRECTION                     <
>                                                          <
>>>>>>>>>>>>>>>>>>>>>>>>>>>> KEY <<<<<<<<<<<<<<<<<<<<<<<<<<<




USA.gov is the U.S. government's official web portal to all federal, state and local government web resources and services.